| time (UTC) | temp C | wind direction | speed KPH | gust KPH | rain 1hr cm | rain 24hr cm | rain mn cm | humidity % | barometer mb |
| 20260510171818 | 16 | 136 | 4.8 | 6.4 | 0.00 | 0.00 | 0.00 | 78 | 1012.8 |
| 20260510171315 | 15 | 282 | 3.2 | 8.0 | 0.00 | 0.00 | 0.00 | 84 | 1012.7 |
| 20260510170813 | 15 | 217 | 3.2 | 4.8 | 0.00 | 0.00 | 0.00 | 86 | 1013.0 |
| 20260510170309 | 13 | 142 | 0.0 | 4.8 | 0.00 | 0.00 | 0.00 | 93 | 1012.8 |
| 20260510165808 | 13 | 231 | 1.6 | 3.2 | 0.00 | 0.00 | 0.00 | 96 | 1013.0 |
| 20260510165307 | 12 | 356 | 1.6 | 3.2 | 0.00 | 0.00 | 0.00 | 97 | 1013.0 |
| 20260510164803 | 12 | 246 | 0.0 | 3.2 | 0.00 | 0.00 | 0.00 | 97 | 1013.0 |
| 20260510164300 | 12 | 140 | 1.6 | 4.8 | 0.00 | 0.00 | 0.00 | 97 | 1012.9 |
| 20260510163755 | 12 | 40 | 1.6 | 3.2 | 0.00 | 0.00 | 0.00 | 98 | 1013.0 |
| 20260510163251 | 12 | 240 | 0.0 | 4.8 | 0.00 | 0.00 | 0.00 | 98 | 1013.1 |
| 20260510162751 | 12 | 93 | 0.0 | 4.8 | 0.00 | 0.00 | 0.00 | 98 | 1012.9 |
| 20260510162248 | 12 | 264 | 3.2 | 4.8 | 0.00 | 0.00 | 0.00 | 98 | 1013.0 |
| 20260510161743 | 12 | 233 | 1.6 | 3.2 | 0.00 | 0.00 | 0.00 | 98 | 1012.9 |
| 20260510161239 | 12 | 275 | 3.2 | 4.8 | 0.00 | 0.00 | 0.00 | 98 | 1012.7 |
| 20260510160737 | 12 | 300 | 6.4 | 8.0 | 0.00 | 0.00 | 0.00 | 98 | 1012.9 |
| 20260510160232 | 12 | 275 | 0.0 | 8.0 | 0.00 | 0.00 | 0.00 | 99 | 1012.9 |
| 20260510155728 | 12 | 16 | 3.2 | 8.0 | 0.00 | 0.00 | 0.00 | 97 | 1012.6 |
| 20260510155224 | 13 | 34 | 3.2 | 4.8 | 0.00 | 0.00 | 0.00 | 96 | 1012.6 |
| 20260510154720 | 13 | 158 | 1.6 | 4.8 | 0.00 | 0.00 | 0.00 | 94 | 1012.6 |
| 20260510154216 | 12 | 140 | 3.2 | 8.0 | 0.00 | 0.00 | 0.00 | 97 | 1012.9 |
| 20260510153711 | 12 | 154 | 1.6 | 8.0 | 0.00 | 0.00 | 0.00 | 98 | 1012.7 |
| 20260510153207 | 12 | 339 | 1.6 | 6.4 | 0.00 | 0.00 | 0.00 | 99 | 1012.6 |
| 20260510152704 | 12 | 229 | 3.2 | 4.8 | 0.00 | 0.00 | 0.00 | 99 | 1012.7 |
| 20260510152200 | 12 | 266 | 3.2 | 4.8 | 0.00 | 0.00 | 0.00 | 97 | 1012.7 |
| 20260510151657 | 12 | 355 | 4.8 | 4.8 | 0.00 | 0.00 | 0.00 | 98 | 1012.7 |
| 20260510151156 | 12 | 137 | 3.2 | 8.0 | 0.00 | 0.00 | 0.00 | 98 | 1012.7 |
| 20260510150651 | 12 | 180 | 0.0 | 8.0 | 0.00 | 0.00 | 0.00 | 99 | 1012.8 |
| 20260510150146 | 12 | 7 | 0.0 | 8.0 | 0.00 | 0.00 | 0.00 | 99 | 1012.5 |
| 20260510145643 | 12 | 98 | 1.6 | 4.8 | 0.00 | 0.00 | 0.00 | 99 | 1012.4 |
| 20260510145140 | 12 | 152 | 3.2 | 6.4 | 0.00 | 0.00 | 0.00 | 99 | 1012.5 |
| 20260510144635 | 11 | 260 | 3.2 | 4.8 | 0.00 | 0.00 | 0.00 | 99 | 1012.4 |
| 20260510144132 | 12 | 243 | 1.6 | 4.8 | 0.00 | 0.00 | 0.00 | 99 | 1012.6 |
| 20260510143627 | 11 | 241 | 4.8 | 6.4 | 0.00 | 0.00 | 0.00 | 99 | 1012.5 |
| 20260510143124 | 11 | 340 | 1.6 | 6.4 | 0.00 | 0.00 | 0.00 | 99 | 1012.3 |
| 20260510142621 | 11 | 118 | 8.0 | 9.7 | 0.00 | 0.00 | 0.00 | 99 | 1012.4 |
| 20260510142118 | 10 | 44 | 1.6 | 9.7 | 0.00 | 0.00 | 0.00 | 99 | 1012.6 |
| 20260510141614 | 10 | 274 | 3.2 | 4.8 | 0.00 | 0.00 | 0.00 | 99 | 1012.5 |
| 20260510141113 | 10 | 194 | 0.0 | 4.8 | 0.00 | 0.00 | 0.00 | 99 | 1012.6 |
| 20260510140609 | 10 | 271 | 0.0 | 3.2 | 0.00 | 0.00 | 0.00 | 99 | 1012.7 |
| 20260510140108 | 9 | 209 | 0.0 | 8.0 | 0.00 | 0.00 | 0.00 | 99 | 1012.7 |
| 20260510135604 | 10 | 76 | 0.0 | 4.8 | 0.00 | 0.00 | 0.00 | 99 | 1012.6 |
| 20260510135100 | 10 | 267 | 1.6 | 4.8 | 0.00 | 0.00 | 0.00 | 99 | 1012.6 |
| 20260510134557 | 10 | 10 | 3.2 | 4.8 | 0.00 | 0.00 | 0.00 | 99 | 1012.4 |
| 20260510134054 | 10 | 260 | 3.2 | 6.4 | 0.00 | 0.00 | 0.00 | 99 | 1012.9 |
| 20260510133550 | 10 | 216 | 4.8 | 6.4 | 0.00 | 0.00 | 0.00 | 99 | 1012.7 |
| 20260510133046 | 10 | 182 | 3.2 | 11.3 | 0.00 | 0.00 | 0.00 | 99 | 1012.4 |
| 20260510132543 | 9 | 18 | 0.0 | 8.0 | 0.00 | 0.00 | 0.00 | 99 | 1012.5 |
| 20260510132040 | 9 | 220 | 4.8 | 6.4 | 0.00 | 0.00 | 0.00 | 99 | 1012.6 |
| 20260510131537 | 9 | 220 | 3.2 | 4.8 | 0.00 | 0.00 | 0.00 | 99 | 1012.6 |
| 20260510131035 | 8 | 222 | 0.0 | 8.0 | 0.00 | 0.00 | 0.00 | 99 | 1012.5 |
| 20260510130530 | 8 | 266 | 1.6 | 11.3 | 0.00 | 0.00 | 0.00 | 99 | 1012.5 |
| 20260510130028 | 9 | 201 | 3.2 | 3.2 | 0.00 | 0.00 | 0.00 | 99 | 1012.3 |
| 20260510125524 | 9 | 225 | 3.2 | 9.7 | 0.00 | 0.00 | 0.00 | 99 | 1012.5 |
| 20260510125021 | 8 | 258 | 1.6 | 11.3 | 0.00 | 0.00 | 0.00 | 99 | 1012.6 |
| 20260510124518 | 8 | 228 | 4.8 | 4.8 | 0.00 | 0.00 | 0.00 | 99 | 1012.5 |
| 20260510124015 | 8 | 240 | 0.0 | 9.7 | 0.00 | 0.00 | 0.00 | 99 | 1012.5 |
| 20260510123510 | 8 | 227 | 3.2 | 4.8 | 0.00 | 0.00 | 0.00 | 99 | 1012.4 |
| 20260510123006 | 8 | 254 | 3.2 | 4.8 | 0.00 | 0.00 | 0.00 | 99 | 1012.4 |
| 20260510122502 | 8 | 185 | 0.0 | 4.8 | 0.00 | 0.00 | 0.00 | 99 | 1012.2 |
| 20260510121958 | 8 | 208 | 3.2 | 8.0 | 0.00 | 0.00 | 0.00 | 99 | 1012.2 |
| 20260510121455 | 8 | 283 | 0.0 | 3.2 | 0.00 | 0.00 | 0.00 | 99 | 1012.4 |
| 20260510120953 | 8 | 226 | 3.2 | 4.8 | 0.00 | 0.00 | 0.00 | 99 | 1012.3 |
| 20260510120450 | 8 | 209 | 0.0 | 9.7 | 0.00 | 0.00 | 0.00 | 99 | 1012.5 |
| 20260510115945 | 8 | 241 | 4.8 | 8.0 | 0.00 | 0.00 | 0.00 | 99 | 1012.5 |
| 20260510115443 | 8 | 215 | 1.6 | 4.8 | 0.00 | 0.00 | 0.00 | 99 | 1012.6 |
| 20260510114938 | 8 | 223 | 4.8 | 8.0 | 0.00 | 0.00 | 0.00 | 99 | 1012.5 |
| 20260510114436 | 8 | 277 | 3.2 | 6.4 | 0.00 | 0.00 | 0.00 | 99 | 1012.6 |
| 20260510113931 | 8 | 209 | 1.6 | 8.0 | 0.00 | 0.00 | 0.00 | 99 | 1012.6 |
| 20260510113427 | 7 | 248 | 3.2 | 6.4 | 0.00 | 0.00 | 0.00 | 99 | 1012.4 |
| 20260510112925 | 7 | 185 | 4.8 | 9.7 | 0.00 | 0.00 | 0.00 | 99 | 1012.5 |
| 20260510112422 | 7 | 202 | 3.2 | 6.4 | 0.00 | 0.00 | 0.00 | 99 | 1012.5 |
| 20260510111918 | 7 | 32 | 0.0 | 8.0 | 0.00 | 0.00 | 0.00 | 99 | 1012.1 |
| 20260510111414 | 7 | 247 | 3.2 | 4.8 | 0.00 | 0.00 | 0.00 | 99 | 1012.3 |
| 20260510110909 | 7 | 258 | 4.8 | 4.8 | 0.00 | 0.00 | 0.00 | 99 | 1012.1 |
| 20260510110406 | 7 | 264 | 3.2 | 4.8 | 0.00 | 0.00 | 0.00 | 99 | 1012.3 |
| 20260510105902 | 7 | 265 | 3.2 | 3.2 | 0.00 | 0.00 | 0.00 | 99 | 1011.9 |
| 20260510105356 | 7 | 277 | 3.2 | 3.2 | 0.00 | 0.00 | 0.00 | 99 | 1011.9 |
| 20260510104852 | 7 | 257 | 4.8 | 4.8 | 0.00 | 0.00 | 0.00 | 99 | 1011.8 |
| 20260510104350 | 7 | 233 | 3.2 | 4.8 | 0.00 | 0.00 | 0.00 | 99 | 1011.8 |
| 20260510103846 | 7 | 247 | 1.6 | 3.2 | 0.00 | 0.00 | 0.00 | 99 | 1011.8 |
| 20260510103343 | 7 | 149 | 0.0 | 3.2 | 0.00 | 0.00 | 0.00 | 99 | 1011.7 |
| 20260510102839 | 7 | 246 | 3.2 | 4.8 | 0.00 | 0.00 | 0.00 | 99 | 1011.7 |
| 20260510102335 | 7 | 254 | 8.0 | 9.7 | 0.00 | 0.00 | 0.00 | 99 | 1011.2 |
| 20260510101832 | 7 | 235 | 1.6 | 3.2 | 0.00 | 0.00 | 0.00 | 99 | 1011.2 |
| 20260510101330 | 7 | 130 | 0.0 | 3.2 | 0.00 | 0.00 | 0.00 | 99 | 1011.3 |
| 20260510100826 | 7 | 235 | 0.0 | 3.2 | 0.00 | 0.00 | 0.00 | 99 | 1011.5 |
| 20260510100324 | 7 | 234 | 4.8 | 4.8 | 0.00 | 0.00 | 0.00 | 99 | 1011.3 |
| 20260510095820 | 7 | 224 | 0.0 | 8.0 | 0.00 | 0.00 | 0.00 | 99 | 1011.2 |
| 20260510095315 | 7 | 252 | 1.6 | 6.4 | 0.00 | 0.00 | 0.00 | 99 | 1011.0 |
| 20260510094814 | 7 | 224 | 0.0 | 9.7 | 0.00 | 0.00 | 0.00 | 99 | 1011.2 |
| 20260510094310 | 7 | 198 | 1.6 | 4.8 | 0.00 | 0.00 | 0.00 | 99 | 1010.9 |
| 20260510093806 | 7 | 218 | 0.0 | 3.2 | 0.00 | 0.00 | 0.00 | 99 | 1010.9 |
| 20260510093303 | 7 | 269 | 0.0 | 3.2 | 0.00 | 0.00 | 0.00 | 99 | 1011.0 |
| 20260510092759 | 7 | 216 | 1.6 | 3.2 | 0.00 | 0.00 | 0.00 | 99 | 1010.7 |
| 20260510092255 | 7 | 221 | 0.0 | 6.4 | 0.00 | 0.00 | 0.00 | 99 | 1010.7 |
| 20260510091750 | 7 | 167 | 0.0 | 3.2 | 0.00 | 0.00 | 0.00 | 99 | 1010.6 |
| 20260510091248 | 7 | 278 | 1.6 | 4.8 | 0.00 | 0.00 | 0.00 | 99 | 1010.8 |
| 20260510090744 | 7 | 226 | 1.6 | 6.4 | 0.00 | 0.00 | 0.00 | 99 | 1010.5 |
| 20260510090242 | 7 | 0 | 0.0 | 3.2 | 0.00 | 0.00 | 0.00 | 99 | 1010.6 |
| 20260510085737 | 7 | 315 | 0.0 | 1.6 | 0.00 | 0.00 | 0.00 | 99 | 1010.7 |
| 20260510085231 | 7 | 291 | 3.2 | 4.8 | 0.00 | 0.00 | 0.00 | 99 | 1010.7 |
| 20260510084728 | 7 | 147 | 0.0 | 3.2 | 0.00 | 0.00 | 0.00 | 99 | 1010.6 |
| 20260510084225 | 7 | 53 | 0.0 | 3.2 | 0.00 | 0.00 | 0.00 | 99 | 1010.7 |
| 20260510083721 | 7 | 249 | 0.0 | 3.2 | 0.00 | 0.00 | 0.00 | 99 | 1010.6 |
| 20260510083218 | 7 | 260 | 3.2 | 4.8 | 0.00 | 0.00 | 0.00 | 99 | 1011.2 |
| 20260510082714 | 7 | 239 | 3.2 | 4.8 | 0.00 | 0.00 | 0.00 | 99 | 1011.2 |
| 20260510082211 | 7 | 131 | 0.0 | 6.4 | 0.00 | 0.00 | 0.00 | 99 | 1010.9 |
| 20260510081704 | 7 | 224 | 0.0 | 4.8 | 0.00 | 0.00 | 0.00 | 99 | 1011.1 |
| 20260510081201 | 7 | 235 | 0.0 | 3.2 | 0.00 | 0.00 | 0.00 | 99 | 1011.4 |
| 20260510080701 | 7 | 60 | 0.0 | 1.6 | 0.00 | 0.00 | 0.00 | 99 | 1011.0 |
| 20260510080157 | 7 | 183 | 1.6 | 3.2 | 0.00 | 0.00 | 0.00 | 99 | 1011.4 |
| 20260510075654 | 7 | 193 | 0.0 | 1.6 | 0.00 | 0.00 | 0.00 | 99 | 1011.3 |
| 20260510075152 | 7 | 229 | 0.0 | 1.6 | 0.00 | 0.00 | 0.00 | 99 | 1011.3 |
| 20260510074649 | 7 | 174 | 1.6 | 1.6 | 0.00 | 0.00 | 0.00 | 99 | 1011.1 |
| 20260510074144 | 7 | 206 | 0.0 | 1.6 | 0.00 | 0.00 | 0.00 | 99 | 1010.9 |
| 20260510073641 | 7 | 231 | 1.6 | 3.2 | 0.00 | 0.00 | 0.00 | 99 | 1011.1 |
| 20260510073137 | 7 | 212 | 0.0 | 6.4 | 0.00 | 0.00 | 0.00 | 99 | 1011.1 |
| 20260510072633 | 7 | 313 | 3.2 | 4.8 | 0.00 | 0.00 | 0.00 | 99 | 1011.2 |
| 20260510072130 | 7 | 239 | 4.8 | 4.8 | 0.00 | 0.00 | 0.00 | 99 | 1010.9 |
| 20260510071626 | 7 | 141 | 0.0 | 3.2 | 0.00 | 0.00 | 0.00 | 99 | 1011.0 |
| 20260510071124 | 7 | 255 | 3.2 | 4.8 | 0.00 | 0.00 | 0.00 | 99 | 1011.0 |
| 20260510070621 | 7 | 255 | 1.6 | 3.2 | 0.00 | 0.00 | 0.00 | 99 | 1010.9 |
| 20260510070119 | 7 | 336 | 0.0 | 4.8 | 0.00 | 0.00 | 0.00 | 99 | 1010.6 |
| 20260510065614 | 7 | 232 | 1.6 | 3.2 | 0.00 | 0.00 | 0.00 | 99 | 1010.7 |
| 20260510065110 | 7 | 167 | 1.6 | 3.2 | 0.00 | 0.00 | 0.00 | 99 | 1010.7 |
| 20260510064607 | 7 | 252 | 3.2 | 4.8 | 0.00 | 0.00 | 0.00 | 99 | 1010.9 |
| 20260510064104 | 7 | 180 | 0.0 | 3.2 | 0.00 | 0.00 | 0.00 | 99 | 1010.5 |
| 20260510063601 | 7 | 150 | 0.0 | 3.2 | 0.00 | 0.00 | 0.00 | 99 | 1010.7 |
| 20260510063058 | 7 | 166 | 0.0 | 1.6 | 0.00 | 0.00 | 0.00 | 99 | 1010.9 |
| 20260510062553 | 7 | 202 | 0.0 | 4.8 | 0.00 | 0.00 | 0.00 | 99 | 1010.8 |
| 20260510062049 | 7 | 224 | 0.0 | 6.4 | 0.00 | 0.00 | 0.00 | 99 | 1010.7 |
| 20260510061545 | 8 | 226 | 0.0 | 8.0 | 0.00 | 0.00 | 0.00 | 99 | 1010.7 |
| 20260510061042 | 8 | 261 | 4.8 | 9.7 | 0.00 | 0.00 | 0.00 | 99 | 1010.7 |
| 20260510060538 | 7 | 222 | 1.6 | 4.8 | 0.00 | 0.00 | 0.00 | 99 | 1011.0 |
| 20260510060035 | 8 | 162 | 0.0 | 4.8 | 0.00 | 0.00 | 0.00 | 99 | 1010.9 |
| 20260510055531 | 8 | 221 | 1.6 | 9.7 | 0.00 | 0.00 | 0.00 | 99 | 1011.1 |
| 20260510055029 | 8 | 194 | 0.0 | 4.8 | 0.00 | 0.00 | 0.00 | 99 | 1011.1 |
| 20260510054525 | 8 | 312 | 3.2 | 4.8 | 0.00 | 0.00 | 0.00 | 99 | 1010.9 |
| 20260510054020 | 7 | 224 | 0.0 | 4.8 | 0.00 | 0.00 | 0.00 | 99 | 1011.0 |
| 20260510053515 | 8 | 216 | 3.2 | 8.0 | 0.00 | 0.00 | 0.00 | 99 | 1011.1 |
| 20260510053012 | 8 | 254 | 6.4 | 9.7 | 0.00 | 0.00 | 0.00 | 99 | 1011.1 |
| 20260510052508 | 8 | 208 | 3.2 | 8.0 | 0.00 | 0.00 | 0.00 | 99 | 1011.1 |
| 20260510052004 | 7 | 195 | 3.2 | 6.4 | 0.00 | 0.00 | 0.00 | 99 | 1011.2 |
| 20260510051500 | 7 | 233 | 1.6 | 11.3 | 0.00 | 0.00 | 0.00 | 99 | 1011.3 |
| 20260510050956 | 8 | 226 | 0.0 | 9.7 | 0.00 | 0.00 | 0.00 | 99 | 1011.1 |
| 20260510050454 | 8 | 244 | 4.8 | 11.3 | 0.00 | 0.00 | 0.00 | 99 | 1011.3 |
| 20260510045951 | 8 | 257 | 3.2 | 8.0 | 0.00 | 0.00 | 0.00 | 99 | 1011.0 |
| 20260510045448 | 7 | 269 | 0.0 | 9.7 | 0.00 | 0.00 | 0.00 | 99 | 1010.9 |
| 20260510044944 | 7 | 229 | 9.7 | 11.3 | 0.00 | 0.00 | 0.00 | 99 | 1011.0 |
| 20260510044441 | 7 | 210 | 1.6 | 4.8 | 0.00 | 0.00 | 0.00 | 99 | 1011.1 |
| 20260510043938 | 7 | 242 | 0.0 | 4.8 | 0.00 | 0.00 | 0.00 | 99 | 1011.3 |
| 20260510043434 | 7 | 76 | 1.6 | 1.6 | 0.00 | 0.00 | 0.00 | 99 | 1011.3 |
| 20260510042932 | 7 | 147 | 0.0 | 6.4 | 0.00 | 0.00 | 0.00 | 99 | 1011.3 |
| 20260510042428 | 7 | 224 | 3.2 | 6.4 | 0.00 | 0.00 | 0.00 | 99 | 1011.3 |
| 20260510041924 | 7 | 282 | 6.4 | 6.4 | 0.00 | 0.00 | 0.00 | 99 | 1011.0 |
| 20260510041421 | 7 | 18 | 0.0 | 4.8 | 0.00 | 0.00 | 0.00 | 99 | 1011.1 |
| 20260510040919 | 7 | 295 | 3.2 | 3.2 | 0.00 | 0.00 | 0.00 | 99 | 1011.3 |
| 20260510040415 | 7 | 341 | 3.2 | 4.8 | 0.00 | 0.00 | 0.00 | 99 | 1011.3 |
| 20260510035911 | 7 | 248 | 0.0 | 3.2 | 0.00 | 2.74 | 2.74 | 99 | 1011.5 |
| 20260510035408 | 7 | 275 | 4.8 | 4.8 | 0.00 | 2.74 | 2.74 | 99 | 1011.3 |
| 20260510034902 | 7 | 267 | 3.2 | 4.8 | 0.00 | 2.74 | 2.74 | 99 | 1011.3 |
| 20260510034401 | 7 | 238 | 3.2 | 8.0 | 0.00 | 2.74 | 2.74 | 99 | 1011.3 |
| 20260510033857 | 7 | 235 | 4.8 | 8.0 | 0.00 | 2.74 | 2.74 | 99 | 1011.2 |
| 20260510033354 | 7 | 220 | 1.6 | 6.4 | 0.00 | 2.74 | 2.74 | 99 | 1011.5 |
| 20260510032850 | 7 | 206 | 0.0 | 4.8 | 0.00 | 2.74 | 2.74 | 99 | 1011.3 |
| 20260510032347 | 7 | 228 | 0.0 | 4.8 | 0.00 | 2.74 | 2.74 | 99 | 1011.2 |
| 20260510031843 | 7 | 283 | 0.0 | 4.8 | 0.00 | 2.74 | 2.74 | 99 | 1011.3 |
| 20260510031338 | 7 | 216 | 0.0 | 4.8 | 0.00 | 2.74 | 2.74 | 99 | 1011.3 |
| 20260510030838 | 7 | 218 | 0.0 | 3.2 | 0.00 | 2.74 | 2.74 | 99 | 1011.4 |
| 20260510030334 | 7 | 279 | 0.0 | 4.8 | 0.00 | 2.74 | 2.74 | 99 | 1011.4 |
| 20260510025832 | 7 | 202 | 0.0 | 3.2 | 0.00 | 2.74 | 2.74 | 99 | 1011.4 |
| 20260510025329 | 7 | 215 | 1.6 | 4.8 | 0.00 | 2.74 | 2.74 | 99 | 1011.1 |
| 20260510024826 | 7 | 218 | 0.0 | 3.2 | 0.00 | 2.74 | 2.74 | 99 | 1011.3 |
| 20260510024323 | 7 | 229 | 0.0 | 6.4 | 0.00 | 2.74 | 2.74 | 99 | 1011.5 |
| 20260510023819 | 7 | 124 | 0.0 | 4.8 | 0.00 | 2.74 | 2.74 | 99 | 1011.6 |
| 20260510023315 | 7 | 192 | 1.6 | 3.2 | 0.00 | 2.74 | 2.74 | 99 | 1011.4 |
| 20260510022813 | 7 | 254 | 4.8 | 6.4 | 0.00 | 2.74 | 2.74 | 99 | 1011.7 |
| 20260510022312 | 7 | 284 | 3.2 | 6.4 | 0.00 | 2.74 | 2.74 | 99 | 1011.4 |
| 20260510021811 | 7 | 71 | 1.6 | 8.0 | 0.00 | 2.74 | 2.74 | 99 | 1011.5 |
| 20260510021310 | 7 | 215 | 1.6 | 4.8 | 0.00 | 2.74 | 2.74 | 99 | 1011.5 |
| 20260510020805 | 7 | 297 | 0.0 | 6.4 | 0.00 | 2.74 | 2.74 | 99 | 1011.6 |
| 20260510020305 | 7 | 205 | 4.8 | 8.0 | 0.00 | 2.74 | 2.74 | 99 | 1011.9 |
| 20260510015802 | 7 | 299 | 3.2 | 8.0 | 0.00 | 2.74 | 2.74 | 99 | 1011.7 |
| 20260510015258 | 7 | 245 | 3.2 | 8.0 | 0.00 | 2.74 | 2.74 | 99 | 1011.8 |
| 20260510014753 | 7 | 299 | 0.0 | 8.0 | 0.00 | 2.74 | 2.74 | 99 | 1011.6 |
| 20260510014250 | 7 | 251 | 0.0 | 4.8 | 0.00 | 2.74 | 2.74 | 99 | 1011.9 |
| 20260510013746 | 7 | 155 | 0.0 | 6.4 | 0.00 | 2.74 | 2.74 | 99 | 1012.2 |
| 20260510013242 | 7 | 251 | 4.8 | 8.0 | 0.00 | 2.74 | 2.74 | 99 | 1012.1 |
| 20260510012737 | 7 | 218 | 0.0 | 6.4 | 0.00 | 2.74 | 2.74 | 99 | 1011.6 |
| 20260510012232 | 7 | 285 | 1.6 | 6.4 | 0.00 | 2.74 | 2.74 | 99 | 1011.6 |
| 20260510011731 | 7 | 246 | 0.0 | 3.2 | 0.00 | 2.74 | 2.74 | 99 | 1011.8 |
| 20260510011227 | 7 | 269 | 0.0 | 6.4 | 0.00 | 2.74 | 2.74 | 99 | 1011.7 |
| 20260510010725 | 7 | 269 | 3.2 | 4.8 | 0.00 | 2.74 | 2.74 | 99 | 1011.6 |
| 20260510010215 | 7 | 321 | 6.4 | 9.7 | 0.00 | 2.74 | 2.74 | 99 | 1011.3 |
| 20260510005712 | 7 | 315 | 0.0 | 4.8 | 0.00 | 2.74 | 2.74 | 99 | 1011.6 |
| 20260510005209 | 7 | 198 | 0.0 | 6.4 | 0.00 | 2.74 | 2.74 | 99 | 1011.6 |
| 20260510004707 | 7 | 135 | 0.0 | 4.8 | 0.00 | 2.74 | 2.74 | 99 | 1011.6 |
| 20260510004205 | 7 | 319 | 3.2 | 4.8 | 0.00 | 2.74 | 2.74 | 99 | 1011.5 |
| 20260510003702 | 7 | 290 | 0.0 | 4.8 | 0.00 | 2.74 | 2.74 | 99 | 1011.4 |
| 20260510003158 | 7 | 245 | 0.0 | 6.4 | 0.00 | 2.74 | 2.74 | 99 | 1011.3 |
| 20260510002657 | 7 | 258 | 0.0 | 4.8 | 0.00 | 2.74 | 2.74 | 99 | 1011.1 |
| 20260510002154 | 7 | 205 | 0.0 | 8.0 | 0.00 | 2.74 | 2.74 | 99 | 1011.0 |
| 20260510001651 | 7 | 29 | 3.2 | 4.8 | 0.00 | 2.74 | 2.74 | 99 | 1010.8 |
| 20260510001150 | 7 | 265 | 4.8 | 4.8 | 0.00 | 2.74 | 2.74 | 99 | 1010.7 |
| 20260510000650 | 7 | 108 | 0.0 | 4.8 | 0.00 | 2.74 | 2.74 | 99 | 1011.0 |
| 20260510000148 | 7 | 256 | 3.2 | 8.0 | 0.00 | 2.74 | 2.74 | 99 | 1010.8 |
| 20260509235644 | 7 | 293 | 3.2 | 4.8 | 0.00 | 2.74 | 2.74 | 99 | 1010.9 |
| 20260509235141 | 7 | 42 | 1.6 | 4.8 | 0.00 | 2.74 | 2.74 | 99 | 1011.1 |
| 20260509234637 | 7 | 245 | 4.8 | 8.0 | 0.00 | 2.74 | 2.74 | 99 | 1011.1 |
| 20260509234134 | 7 | 288 | 4.8 | 6.4 | 0.00 | 2.74 | 2.74 | 99 | 1010.8 |
| 20260509233632 | 7 | 227 | 4.8 | 4.8 | 0.00 | 2.74 | 2.74 | 99 | 1010.8 |
| 20260509233129 | 7 | 69 | 0.0 | 0.0 | 0.00 | 2.74 | 2.74 | 99 | 1011.0 |
| 20260509232625 | 7 | 113 | 0.0 | 1.6 | 0.00 | 2.74 | 2.74 | 99 | 1011.0 |
| 20260509232122 | 7 | 68 | 1.6 | 1.6 | 0.00 | 2.74 | 2.74 | 99 | 1011.0 |
| 20260509231619 | 7 | 25 | 0.0 | 4.8 | 0.00 | 2.74 | 2.74 | 99 | 1011.1 |
| 20260509231117 | 7 | 62 | 4.8 | 4.8 | 0.00 | 2.74 | 2.74 | 99 | 1010.9 |
| 20260509230613 | 7 | 49 | 0.0 | 4.8 | 0.00 | 2.74 | 2.74 | 99 | 1011.1 |
| 20260509230111 | 7 | 305 | 1.6 | 3.2 | 0.00 | 2.74 | 2.74 | 99 | 1011.0 |
| 20260509225606 | 7 | 130 | 0.0 | 4.8 | 0.00 | 2.74 | 2.74 | 99 | 1010.8 |
| 20260509225101 | 7 | 70 | 3.2 | 6.4 | 0.00 | 2.74 | 2.74 | 99 | 1010.9 |
| 20260509224557 | 7 | 255 | 1.6 | 4.8 | 0.00 | 2.74 | 2.74 | 99 | 1011.0 |
| 20260509224055 | 6 | 210 | 0.0 | 4.8 | 0.00 | 2.74 | 2.74 | 99 | 1011.0 |
| 20260509223551 | 7 | 352 | 0.0 | 3.2 | 0.00 | 2.74 | 2.74 | 99 | 1011.0 |
| 20260509223049 | 6 | 42 | 3.2 | 4.8 | 0.00 | 2.74 | 2.74 | 99 | 1010.8 |
| 20260509222545 | 6 | 99 | 0.0 | 4.8 | 0.00 | 2.74 | 2.74 | 99 | 1010.8 |
| 20260509222041 | 6 | 70 | 3.2 | 9.7 | 0.00 | 2.74 | 2.74 | 99 | 1010.7 |
| 20260509221537 | 6 | 287 | 0.0 | 3.2 | 0.00 | 2.74 | 2.74 | 99 | 1010.8 |
| 20260509221033 | 6 | 320 | 3.2 | 4.8 | 0.00 | 2.74 | 2.74 | 99 | 1010.7 |
| 20260509220529 | 6 | 18 | 0.0 | 1.6 | 0.00 | 2.74 | 2.74 | 99 | 1010.9 |
| 20260509220026 | 6 | 333 | 0.0 | 4.8 | 0.00 | 2.74 | 2.74 | 99 | 1010.6 |
| 20260509215521 | 6 | 191 | 0.0 | 4.8 | 0.00 | 2.74 | 2.74 | 99 | 1010.6 |
| 20260509215018 | 6 | 302 | 3.2 | 4.8 | 0.00 | 2.74 | 2.74 | 99 | 1010.9 |
| 20260509214515 | 6 | 32 | 1.6 | 3.2 | 0.00 | 2.74 | 2.74 | 99 | 1010.9 |
| 20260509214012 | 6 | 258 | 1.6 | 6.4 | 0.00 | 2.74 | 2.74 | 99 | 1010.9 |
| 20260509213508 | 6 | 247 | 3.2 | 4.8 | 0.00 | 2.74 | 2.74 | 99 | 1011.0 |
| 20260509213006 | 6 | 139 | 3.2 | 4.8 | 0.00 | 2.74 | 2.74 | 99 | 1011.0 |
| 20260509212502 | 6 | 202 | 0.0 | 8.0 | 0.00 | 2.74 | 2.74 | 99 | 1011.0 |
| 20260509211959 | 6 | 212 | 1.6 | 4.8 | 0.00 | 2.74 | 2.74 | 99 | 1011.1 |
| 20260509211454 | 6 | 248 | 3.2 | 6.4 | 0.00 | 2.74 | 2.74 | 99 | 1011.0 |
| 20260509210951 | 6 | 266 | 3.2 | 4.8 | 0.05 | 2.74 | 2.74 | 99 | 1011.3 |
| 20260509210448 | 6 | 150 | 0.0 | 4.8 | 0.05 | 2.72 | 2.72 | 99 | 1011.4 |
| 20260509205944 | 6 | 283 | 0.0 | 4.8 | 0.18 | 2.72 | 2.72 | 99 | 1011.3 |
| 20260509205439 | 6 | 286 | 0.0 | 4.8 | 0.18 | 2.72 | 2.72 | 99 | 1011.3 |
| 20260509204935 | 6 | 244 | 6.4 | 6.4 | 0.13 | 2.69 | 2.69 | 99 | 1011.6 |
| 20260509204431 | 6 | 17 | 1.6 | 4.8 | 0.13 | 2.67 | 2.67 | 99 | 1011.5 |
| 20260509203928 | 6 | 163 | 3.2 | 6.4 | 0.18 | 2.67 | 2.67 | 99 | 1011.5 |
| 20260509203424 | 6 | 259 | 1.6 | 4.8 | 0.23 | 2.67 | 2.67 | 99 | 1011.5 |
| 20260509202922 | 6 | 150 | 0.0 | 1.6 | 0.36 | 2.64 | 2.64 | 99 | 1011.3 |
| 20260509202417 | 6 | 203 | 3.2 | 3.2 | 0.36 | 2.62 | 2.62 | 99 | 1011.4 |
| 20260509201913 | 6 | 166 | 0.0 | 4.8 | 0.36 | 2.59 | 2.59 | 99 | 1011.5 |
| 20260509201408 | 6 | 195 | 0.0 | 4.8 | 0.43 | 2.54 | 2.54 | 99 | 1011.7 |
| 20260509200905 | 6 | 161 | 1.6 | 3.2 | 0.48 | 2.51 | 2.51 | 99 | 1011.9 |
| 20260509200359 | 6 | 44 | 0.0 | 3.2 | 0.30 | 2.46 | 2.46 | 99 | 1011.6 |
| 20260509195856 | 6 | 296 | 0.0 | 1.6 | 0.23 | 2.44 | 2.44 | 99 | 1011.8 |
| 20260509195356 | 6 | 106 | 0.0 | 3.2 | 0.30 | 2.41 | 2.41 | 99 | 1011.7 |
| 20260509194856 | 6 | 145 | 0.0 | 3.2 | 0.23 | 2.39 | 2.39 | 99 | 1011.7 |
| 20260509194353 | 6 | 141 | 0.0 | 8.0 | 0.30 | 2.36 | 2.36 | 99 | 1011.7 |
| 20260509193849 | 5 | 137 | 1.6 | 3.2 | 0.36 | 2.34 | 2.34 | 99 | 1011.6 |
| 20260509193344 | 5 | 126 | 0.0 | 3.2 | 0.30 | 2.31 | 2.31 | 99 | 1011.5 |
| 20260509192841 | 5 | 95 | 0.0 | 3.2 | 0.36 | 2.29 | 2.29 | 99 | 1011.6 |
| 20260509192336 | 5 | 211 | 0.0 | 4.8 | 0.36 | 2.24 | 2.24 | 99 | 1011.7 |
| 20260509191831 | 5 | 135 | 3.2 | 3.2 | 0.36 | 2.21 | 2.21 | 99 | 1011.5 |
| 20260509191327 | 5 | 124 | 0.0 | 3.2 | 0.36 | 2.18 | 2.18 | 99 | 1011.7 |
| 20260509190823 | 5 | 193 | 0.0 | 3.2 | 0.30 | 2.16 | 2.16 | 99 | 1011.8 |
| 20260509190321 | 5 | 212 | 0.0 | 1.6 | 0.30 | 2.11 | 2.11 | 99 | 1011.9 |
| 20260509185819 | 5 | 135 | 0.0 | 3.2 | 0.30 | 2.08 | 2.08 | 99 | 1011.8 |
| 20260509185315 | 5 | 163 | 0.0 | 1.6 | 0.30 | 2.06 | 2.06 | 99 | 1012.2 |
| 20260509184812 | 5 | 126 | 0.0 | 4.8 | 0.30 | 2.03 | 2.03 | 99 | 1012.4 |
| 20260509184309 | 5 | 269 | 0.0 | 4.8 | 0.23 | 2.01 | 2.01 | 99 | 1012.3 |
| 20260509183805 | 5 | 175 | 0.0 | 3.2 | 0.30 | 1.98 | 1.98 | 99 | 1012.3 |
| 20260509183300 | 5 | 147 | 0.0 | 1.6 | 0.30 | 1.96 | 1.96 | 99 | 1012.1 |
| 20260509182756 | 5 | 16 | 0.0 | 3.2 | 0.30 | 1.93 | 1.93 | 99 | 1012.2 |
| 20260509182254 | 5 | 211 | 1.6 | 4.8 | 0.30 | 1.91 | 1.91 | 99 | 1012.2 |
| 20260509181751 | 5 | 225 | 0.0 | 3.2 | 0.30 | 1.88 | 1.88 | 99 | 1012.2 |
| 20260509181248 | 5 | 97 | 0.0 | 4.8 | 0.30 | 1.83 | 1.83 | 99 | 1012.3 |
| 20260509180745 | 5 | 33 | 1.6 | 3.2 | 0.30 | 1.80 | 1.80 | 99 | 1012.2 |
| 20260509180242 | 5 | 240 | 0.0 | 3.2 | 0.23 | 1.78 | 1.78 | 99 | 1012.4 |
| 20260509175738 | 5 | 245 | 1.6 | 4.8 | 0.18 | 1.75 | 1.75 | 99 | 1012.4 |
| 20260509175234 | 5 | 56 | 0.0 | 1.6 | 0.18 | 1.75 | 1.75 | 99 | 1012.3 |
| 20260509174731 | 5 | 202 | 0.0 | 3.2 | 0.18 | 1.73 | 1.73 | 99 | 1012.4 |
| 20260509174226 | 5 | 135 | 0.0 | 3.2 | 0.23 | 1.70 | 1.70 | 99 | 1012.8 |
| 20260509173722 | 5 | 89 | 0.0 | 4.8 | 0.30 | 1.68 | 1.68 | 99 | 1012.5 |
| 20260509173218 | 5 | 59 | 0.0 | 4.8 | 0.36 | 1.65 | 1.65 | 99 | 1012.8 |
| 20260509172714 | 5 | 202 | 0.0 | 8.0 | 0.23 | 1.63 | 1.63 | 99 | 1012.8 |
| 20260509172211 | 5 | 140 | 0.0 | 3.2 | 0.23 | 1.60 | 1.60 | 99 | 1012.7 |